Weather History for KFOK - October, 2013

Change the Weather History Date:

Thursday, October 31, 2013

  Actual Average Record
Temperature  
Mean Temperature 52 °F -  
Max Temperature 66 °F 55 °F 73 °F (2004)
Min Temperature 41 °F 36 °F 23 °F (2008)
Degree Days  
Heating Degree Days 12    
Growing Degree Days 2 (Base 50)    
Moisture  
Dew Point 51 °F    
Average Humidity 88    
Maximum Humidity 100    
Minimum Humidity 78    
Precipitation  
Precipitation 0.01 in - - ()
Sea Level Pressure  
Sea Level Pressure 30.14 in    
Wind  
Wind Speed 3 mph (South)    
Max Wind Speed 17 mph    
Max Gust Speed 28 mph    
Visibility 6 miles    
Events Fog , Rain    
Averages and records for this station are not official NWS values.
T = Trace of Precipitation, MM = Missing Value Source: NWS Daily Summary

Daily Weather History Graph

Daily Weather History Graph

Search for Another Location

Airport or City:

Trip Planner

Search our weather history database for the weather conditions in past years. The results will help you decide how hot, cold, wet, or windy it might be!

Date:

Astronomy

Oct. 31, 2013 Rise Set
Actual Time 7:20 AM EDT 5:47 PM EDT
Civil Twilight 6:51 AM EDT 6:15 PM EDT
Nautical Twilight 6:19 AM EDT 6:48 PM EDT
Astronomical Twilight 5:47 AM EDT 7:20 PM EDT
Moon 4:05 AM EDT (10/31) 4:04 PM EDT (10/31)
Length of Visible Light 11h 24m
Length of Day
10h 27m
Waning Crescent, 10% of the Moon is Illuminated
Oct 31
Waning Crescent
Nov 3
New
Nov 10
First Quarter
Nov 17
Full
Nov 25
Last Quarter

Hourly Weather History & Observations

Time (EDT) Temp. Dew Point Humidity Pressure Visibility Wind Dir Wind Speed Gust Speed Precip Events Conditions
12:33 AM 42.8 °F 42.8 °F 100% 30.25 in 0.2 mi Calm Calm - N/A Fog Fog
12:47 AM 42.8 °F 39.2 °F 87% 30.25 in 1.0 mi Calm Calm - N/A   Mist
12:53 AM 41.0 °F 39.9 °F 96% 30.26 in 2.5 mi Calm Calm - N/A   Mist
1:00 AM 41.0 °F 39.2 °F 93% 30.25 in 4.0 mi Calm Calm - N/A   Mist
1:09 AM 41.0 °F 39.2 °F 93% 30.25 in 3.0 mi Calm Calm - N/A   Overcast
1:53 AM - - N/A% 30.24 in 5.0 mi Calm Calm - N/A   Haze
2:05 AM - - N/A% 30.24 in 1.5 mi Calm Calm - N/A   Overcast
2:09 AM - - N/A% 30.23 in 0.2 mi Calm Calm - N/A Fog Fog
2:24 AM - - N/A% 30.23 in 0.2 mi Calm Calm - N/A Fog Fog
2:36 AM - - N/A% 30.23 in 0.5 mi Calm Calm - N/A Fog Fog
2:46 AM - - N/A% 30.23 in 2.0 mi Calm Calm - N/A   Mist
2:53 AM - - N/A% 30.23 in 6.0 mi NNE 3.5 mph - N/A   Haze
3:21 AM 44.6 °F 42.8 °F 93% 30.24 in 5.0 mi Calm Calm - N/A   Overcast
3:53 AM 46.9 °F 45.0 °F 93% 30.24 in 6.0 mi Calm Calm - N/A   Overcast
4:53 AM 48.9 °F 46.9 °F 93% 30.22 in 5.0 mi Calm Calm - N/A   Overcast
5:53 AM 51.1 °F 48.9 °F 92% 30.21 in 6.0 mi Calm Calm - N/A   Overcast
6:17 AM 48.2 °F 46.4 °F 93% 30.20 in 6.0 mi Calm Calm - N/A   Mostly Cloudy
6:42 AM 46.4 °F 44.6 °F 93% 30.21 in 2.0 mi Calm Calm - N/A   Partly Cloudy
6:53 AM 48.0 °F 46.0 °F 93% 30.21 in 2.5 mi Calm Calm - N/A   Mostly Cloudy
7:01 AM 48.2 °F 46.4 °F 93% 30.20 in 4.0 mi Calm Calm - N/A   Mostly Cloudy
7:53 AM 50.0 °F 48.0 °F 93% 30.22 in 4.0 mi Calm Calm - N/A   Overcast
8:30 AM 55.4 °F 53.6 °F 94% 30.21 in 7.0 mi SSE 4.6 mph - N/A   Overcast
8:53 AM 57.9 °F 54.0 °F 87% 30.20 in 10.0 mi SE 5.8 mph - N/A   Overcast
9:53 AM 60.1 °F 55.0 °F 83% 30.19 in 10.0 mi SSE 8.1 mph - N/A   Overcast
10:53 AM 61.0 °F 55.0 °F 81% 30.17 in 10.0 mi SSE 6.9 mph - N/A   Overcast
11:53 AM 63.0 °F 57.0 °F 81% 30.14 in 10.0 mi South 11.5 mph 18.4 mph N/A   Overcast
12:53 PM 64.0 °F 57.0 °F 78% 30.12 in 10.0 mi South 10.4 mph 18.4 mph N/A   Overcast
1:53 PM 64.0 °F 57.9 °F 80% 30.07 in 10.0 mi South 12.7 mph 20.7 mph N/A   Overcast
2:53 PM 62.1 °F 57.9 °F 86% 30.05 in 5.0 mi South 10.4 mph - 0.00 in Rain Light Rain
3:53 PM 61.0 °F 57.9 °F 90% 30.04 in 7.0 mi South 8.1 mph - 0.01 in   Overcast
4:53 PM 62.1 °F 57.0 °F 84% 30.03 in 10.0 mi South 9.2 mph 18.4 mph N/A   Overcast
5:53 PM 63.0 °F 57.0 °F 81% 30.01 in 10.0 mi SSW 13.8 mph 23.0 mph N/A   Overcast
6:53 PM 63.0 °F 55.9 °F 78% 30.00 in 10.0 mi South 12.7 mph 23.0 mph N/A   Overcast
7:53 PM 63.0 °F 57.0 °F 81% 29.98 in 10.0 mi South 10.4 mph 26.5 mph N/A   Partly Cloudy
8:53 PM 63.0 °F 59.0 °F 87% 29.96 in 10.0 mi South 12.7 mph 19.6 mph 0.00 in   Mostly Cloudy
9:53 PM 63.0 °F 59.0 °F 87% 29.94 in 9.0 mi South 10.4 mph - N/A   Overcast
10:53 PM 64.0 °F 60.1 °F 87% 29.90 in 10.0 mi South 10.4 mph 19.6 mph N/A   Overcast
11:25 PM 62.6 °F 59.0 °F 88% 29.88 in 10.0 mi SSW 13.8 mph 24.2 mph 0.00 in   Overcast
11:53 PM 64.0 °F 60.1 °F 87% 29.87 in 10.0 mi SSW 17.3 mph 27.6 mph 0.00 in Rain Light Rain